Other Public Products
Issued by NWS Grand Forks, ND

Home | Current Version | Previous Version | Text Only | Print | Product List | Glossary Off
Versions: 1 2 3 4 5 6 7 8 9 10 11 12 13 14 15 16 17 18 19 20 21 22 23 24 25 26 27 28 29 30 31 32 33 34 35 36 37 38 39 40 41 42 43 44 45 46 47 48 49 50

000
FPUS83 KFGF 300031
OPUFGF
PRAIRIE TO PINES WEATHER ROUNDUP
NATIONAL WEATHER SERVICE EASTERN NORTH DAKOTA/GRAND FORKS ND
700 PM CDT WED OCT 29 2014

 **SATELLITE DATA USED TO AUGMENT SKY COVER AT AUTOMATED STATIONS**
 *****  WEATHER ACROSS EASTERN NORTH DAKOTA  *****

CITY           SKY/WX    TMP DP  RH WIND       PRES   REMARKS
GRAND FORKS    CLOUDY    40  28  62 SE12      30.00F
6HR MIN TEMP:  38; 6HR MAX TEMP:  42;

GRAND FORKS AF CLOUDY    39  29  67 S7        29.99F
GRAND CITY NWS   N/A     37 N/A N/A S9          N/A
BUXTON           N/A     39  30  70 SE8         N/A
DEVILS LAKE    CLOUDY    43  28  56 S12       29.92R
6HR MIN TEMP:  39; 6HR MAX TEMP:  45;

FARGO          CLOUDY    42  29  59 SE8       30.02F
6HR MIN TEMP:  39; 6HR MAX TEMP:  43;

WAHPETON ARPT  MOCLDY    39  30  70 SE7       30.04S
$$

 *****  WEATHER ACROSS CENTRAL AND WESTERN NORTH DAKOTA  *****

CITY           SKY/WX    TMP DP  RH WIND       PRES   REMARKS
JAMESTOWN      CLOUDY    46  31  55 S14       29.92F
6HR MIN TEMP:  43; 6HR MAX TEMP:  48;

BISMARCK       LGT RAIN  46  43  89 SW6       29.93R
6HR MIN TEMP:  46; 6HR MAX TEMP:  51; 6HR PCP:  0.01;

MINOT          MOCLDY    43  34  70 SW8       29.87R
6HR MIN TEMP:  42; 6HR MAX TEMP:  46;

MINOT AFB      MOCLDY    40  33  76 W3        29.87R
6HR MIN TEMP:  40; 6HR MAX TEMP:  46;

GARRISON         N/A     44  32  62 SW5       29.89S
6HR MIN TEMP:  41; 6HR MAX TEMP:  45; 6HR PCP:  0.05;

WILLISTON      MOCLDY    41  37  86 S3        29.90R
6HR MIN TEMP:  37; 6HR MAX TEMP:  50;

DICKINSON      MOCLDY    45  39  79 W9        29.91R
6HR MIN TEMP:  45; 6HR MAX TEMP:  50; 6HR PCP:  0.02;

HETTINGER      PTCLDY    46  36  68 W7        29.97R
6HR MIN TEMP:  46; 6HR MAX TEMP:  59; 6HR PCP: TRACE;

$$

 *****  OTHER OBSERVATIONS NORTHEAST NORTH DAKOTA  *****

CITY           SKY/WX    TMP DP  RH WIND       PRES   REMARKS
WALHALLA       FAIR      39  28  65 SE8       30.00R
LANGDON        MOCLDY    37  28  70 SE8       29.96R
CAVALIER       FAIR      39  28  65 SE6       30.01R
GRAFTON        FAIR      37  28  70 SE9       30.01R
CANDO          CLOUDY    41  32  70 SE10      29.93S
FORT TOTTEN      N/A     42  30  62 SE8       29.95S
ROLLA          CLOUDY    39  32  75 SE9       29.92S
RUGBY          FAIR      43  36  75 S3        29.89S
 ***** THE ABOVE OBSERVATIONS ARE NON NWS ARE NOT QUALITY
        CONTROLLED AND MAY MIS-REPORT RAIN FOR SNOW...
$$

 *****  OTHER OBSERVATIONS SOUTHEAST NORTH DAKOTA *****

CITY           SKY/WX    TMP DP  RH WIND       PRES   REMARKS
COOPERSTOWN    NOT AVBL
VALLEY CITY    CLOUDY    43  32  65 S13       29.95F
OAKES            N/A     45  32  61 S8        29.99S
GWINNER        CLEAR     45  32  61 SE7       30.00S
SHEYENNE NWR     N/A     42  31  66 SE3       29.95S
BUFFALO        NOT AVBL
WYNDMERE         N/A     43  30  61 SE6         N/A
 ***** THE ABOVE OBSERVATIONS ARE NON NWS ARE NOT QUALITY
       CONTROLLED AND MAY MIS-REPORT RAIN FOR SNOW...
$$

  *****  WEATHER ACROSS NORTHERN MINNESOTA  *****

CITY           SKY/WX    TMP DP  RH WIND       PRES   REMARKS
FLAG ISLAND    CLOUDY    37  34  87 SW5       30.02R
WARROAD        CLOUDY    36  32  87 CALM      30.05R
ROSEAU         CLOUDY    37  30  75 S3        30.03S
HALLOCK        CLOUDY    37  30  75 SE6       30.02R
THF RVR FALLS  CLOUDY    36  30  80 S5        30.03S
6HR MIN TEMP:  36; 6HR MAX TEMP:  37;

HALSTAD          N/A     37  25  60 SE7         N/A
FOSSTON        CLOUDY    34  30  86 CALM      30.04F
BAUDETTE       CLOUDY    36  33  89 S5        30.03S
6HR MIN TEMP:  36; 6HR MAX TEMP:  37;

WASKISH        CLOUDY    36  32  87 CALM      30.05R
CROOKSTON      CLOUDY    37  30  75 S6        30.03F
$$
  *****  WEATHER ACROSS CENTRAL AND WEST MINNESOTA  *****

CITY           SKY/WX    TMP DP  RH WIND       PRES   REMARKS
BEMIDJI        CLOUDY    34  30  85 SW6       30.04S
PARK RAPIDS    CLOUDY    35  29  78 SW6       30.05R
6HR MIN TEMP:  35; 6HR MAX TEMP:  37;

WADENA         CLOUDY    36  30  80 CALM      30.05S
DETROIT LAKES  MOCLDY    36  32  87 S6        30.05R
MOORHEAD       CLOUDY    41  34  75 SE8       30.03F
FERGUS FALLS   MOCLDY    37  28  70 SE6       30.06F
ELBOW LAKE     FAIR      36  31  83 SE5       30.04S
6HR MIN TEMP:  34; 6HR MAX TEMP:  40;

MORRIS MN      PTCLDY    36  30  80 SE7       30.04S
STAPLES        CLOUDY    36  30  80 CALM      30.06R
WHEATON        PTCLDY    36  30  80 SE8       30.05F
$$
  *****  WEATHER ELSEWHERE ACROSS MINNESOTA  *****

CITY           SKY/WX    TMP DP  RH WIND       PRES   REMARKS
DULUTH         CLOUDY    39  32  76 W7        30.04S
6HR MIN TEMP:  39; 6HR MAX TEMP:  42;

INTRNTL FALLS  CLOUDY    36  34  92 SW3       30.03S
6HR MIN TEMP:  36; 6HR MAX TEMP:  39; 6HR PCP: TRACE;

ELY            CLOUDY    37  34  87 CALM      30.03S
CLOQUET        CLOUDY    37  32  81 W3        30.06R
BRAINERD       CLOUDY    37  31  78 S5        30.06F
6HR MIN TEMP:  35; 6HR MAX TEMP:  37;

HIBBING        CLOUDY    37  31  78 SW3       30.04S
6HR MIN TEMP:  37; 6HR MAX TEMP:  41;

ALEXANDRIA     MOCLDY    35  29  78 S3        30.06F
6HR MIN TEMP:  35; 6HR MAX TEMP:  40;

SAINT CLOUD    CLOUDY    41  32  70 SW6       30.08S
6HR MIN TEMP:  40; 6HR MAX TEMP:  43;

MINNEAPOLIS    MOCLDY    41  31  67 S5        30.10S
6HR MIN TEMP:  40; 6HR MAX TEMP:  42;

$$

  *****  WEATHER ACROSS SOUTH DAKOTA  *****

CITY           SKY/WX    TMP DP  RH WIND       PRES   REMARKS
SIOUX FALLS    MOCLDY    45  30  55 S7        30.05R
6HR MIN TEMP:  45; 6HR MAX TEMP:  51;

BROOKINGS      NOT AVBL
WATERTOWN      CLOUDY    41  32  70 S5        30.01S
6HR MIN TEMP:  39; 6HR MAX TEMP:  49;

HURON          MOCLDY    49  32  52 S7        30.01S
6HR MIN TEMP:  47; 6HR MAX TEMP:  53;

SISSETON         N/A     41  33  73 SE5       30.02R
ABERDEEN       CLOUDY    48  31  51 S5        30.00S
6HR MIN TEMP:  47; 6HR MAX TEMP:  53;

MITCHELL       MOCLDY    50  33  52 SE7       30.02S
PIERRE         MOCLDY    53  30  41 SE8       29.95S
6HR MIN TEMP:  52; 6HR MAX TEMP:  61;

MOBRIDGE       CLOUDY    51  37  58 S3        29.93S
RAPID CITY     PTCLDY    51  33  50 N8        30.02R
6HR MIN TEMP:  51; 6HR MAX TEMP:  68;

$$

  *****  SOME WEATHER IN NEARBY STATES *****

CITY           SKY/WX    TMP DP  RH WIND       PRES   REMARKS
GLASGOW MT     CLOUDY    56  33  42 NW15      29.95R
6HR MIN TEMP:  44; 6HR MAX TEMP:  62;

GREAT FALLS MT CLEAR     53  33  46 SW13      30.10R
6HR MIN TEMP:  53; 6HR MAX TEMP:  61;

CHEYENNE WY    CLEAR     56  21  25 NW17G26   30.14R
6HR MIN TEMP:  56; 6HR MAX TEMP:  64;

SCOTTSBLUFF NE PTCLDY    60  25  26 N10       30.03R
6HR MIN TEMP:  59; 6HR MAX TEMP:  72;

OMAHA NE       PTCLDY    50  32  50 SE9       30.09F
6HR MIN TEMP:  50; 6HR MAX TEMP:  56;

DES MOINES IA  CLEAR     51  33  50 S3        30.12S
6HR MIN TEMP:  50; 6HR MAX TEMP:  55;

DAVENPORT IA   CLEAR     42  29  59 W5        30.14S
6HR MIN TEMP:  41; 6HR MAX TEMP:  52;

CHICAGO IL     MOCLDY    47  31  53 NW8       30.12R
6HR MIN TEMP:  46; 6HR MAX TEMP:  49;

EAU CLAIRE WI  CLOUDY    42  31  64 CALM      30.09S
6HR MIN TEMP:  41; 6HR MAX TEMP:  47;

LA CROSSE WI   CLEAR     41  32  70 W7        30.11S
6HR MIN TEMP:  41; 6HR MAX TEMP:  50;

$$

  *****  SOME NATIONAL WEATHER *****

CITY           SKY/WX    TMP DP  RH WIND       PRES   REMARKS



USA.gov is the U.S. government's official web portal to all federal, state and local government web resources and services.